{"data":{"norad_id":5398,"epoch":"2026-09-20T04:21:27.103680Z","epoch_age_seconds":38647,"freshness":"FRESH","line1":"1 05398U 71067E   26263.18156370  .00000349  00000+0  10766-3 0  9994","line2":"2 05398  87.6204 312.4428 0057429 277.8368  81.6314 14.37959703887538","mean_motion":14.37959703,"eccentricity":0.0057429,"inclination_deg":87.6204,"raan_deg":312.4428,"arg_perigee_deg":277.8368,"mean_anomaly_deg":81.6314,"bstar":0.00010766,"rev_number":88753,"period_min":100.1418883294,"perigee_km":724.22381897559,"apogee_km":806.27130537986,"semimajor_km":7143.3845621777,"source":"CELESTRAK","updated_at":"2026-09-20T09:00:47.876468Z"}}